Location: Bandys
(35.4750°N, 81.0830°W)
Time: 19:28:00
(UTC-04:00)

Daily predictions for brighter satellites

Satellite Brightness Start Highest point End
(mag) Time Altitude Azimuth Time Altitude Azimuth Time Altitude Azimuth
Cosmos 2369 3.8 20:50:36 10° NNW 20:56:17 86° WSW 21:01:57 10° SSE
Cosmos 1777 Rocket 4.1 20:51:23 10° N 20:56:33 60° ENE 21:01:39 10° SSE
Cosmos 1184 Rocket 3.0 20:53:57 10° S 20:57:13 53° E 21:00:31 10° NNE
Cosmos 2016 Rocket 4.1 20:51:53 10° S 20:57:49 57° E 21:03:48 10° NNE
ERS-2 2.7 20:54:56 10° SE 20:58:24 40° ENE 21:01:52 10° N
Cosmos 332 Rocket 4.0 20:54:50 10° SSW 20:59:37 77° WNW 21:04:28 10° NNE
Envisat 3.3 20:54:50 10° S 20:59:53 75° WSW 21:04:59 10° NNW
COSMOS 2487 2.8 20:57:44 10° S 21:01:03 43° ESE 21:04:23 10° NNE
Meteor 2-12 Rocket 4.4 20:56:42 10° S 21:02:46 83° E 21:08:54 10° N
Thor Agena Rocket 3.6 21:01:42 10° NNE 21:07:00 82° ESE 21:12:13 10° SSW
Cosmos 1725 Rocket 4.2 21:02:16 10° SSE 21:08:09 50° E 21:14:07 10° NNE
CENTAUR R/B 4.0 21:06:29 10° SE 21:08:40 12° ESE 21:10:56 10° E
Resurs 1-3 3.8 21:04:39 10° SSE 21:08:54 54° ENE 21:13:11 10° N
CZ-2D R/B 4.5 21:10:08 10° S 21:13:48 42° W 21:17:31 10° NNW
Transit 2A Rocket 4.5 21:10:24 10° NNW 21:14:43 79° ENE 21:18:58 10° SSE
ATLAS CENTAUR R/B 3.8 21:10:31 10° S 21:15:34 52° ESE 21:29:41 10° NE
Shenzhou-11 Module 4.2 21:13:16 10° WNW 21:15:45 23° NNW 21:18:14 10° NE
Cosmos 44 Rocket 3.5 21:12:32 10° NNW 21:17:45 83° ENE 21:22:47 11° SSE
Cosmos 2082 Rocket 3.6 21:12:51 10° SW 21:18:13 44° WNW 21:23:37 10° N
ATLAS 3B R/B 2.8 21:11:18 10° SSW 21:18:35 85° ESE 21:25:35 10° NNE
Delta 168 4.3 21:17:37 10° SW 21:19:29 14° S 21:20:46 12° SSE
NOAA 11 4.4 21:15:58 10° SSE 21:21:16 55° ENE 21:26:36 10° N
Cosmos 1536 3.8 21:17:38 10° NNW 21:21:35 49° W 21:25:30 10° SSW
DELTA 2 R/B (2) 3.0 21:21:19 10° SW 21:22:45 32° SSE 21:22:45 32° SSE
ATLAS CENTAUR R/B 2.1 21:18:58 10° NNW 21:23:25 48° ENE 21:27:06 16° SE
SJ-11-01 4.3 21:18:56 10° SSE 21:23:37 71° ENE 21:28:20 10° N
Cosmos 2322 Rocket 3.9 21:20:21 10° NNE 21:24:02 18° NE 21:27:34 10° E
SL-24 R/B 4.4 21:21:47 10° SSE 21:26:34 71° E 21:31:38 10° N
Atlas Centaur 2 1.7 21:23:23 10° WSW 21:26:55 37° S 21:29:03 18° ESE
DNEPR-1 R/B 3.5 21:24:54 10° SSW 21:29:04 87° ESE 21:33:38 10° NNE
SL-16 R/B 3.7 21:27:04 10° N 21:31:21 22° ENE 21:34:43 13° E
GPS 2-04 Rocket1 2.8 21:27:47 10° W 21:32:01 77° S 21:35:09 18° ESE
Cosmos 1975 3.7 21:29:35 10° NNE 21:33:15 32° E 21:35:20 20° SE
ARGOS 4.0 21:30:24 16° SE 21:33:58 33° ENE 21:38:44 10° N
SAR-Lupe-3 4.4 21:30:34 10° NNE 21:34:10 75° ESE 21:37:43 10° S
ISS -2.8 21:33:20 10° WSW 21:36:31 50° NW 21:39:43 10° NE
Spot 2 Rocket 3.4 21:34:02 11° SSE 21:38:56 82° ENE 21:43:59 10° N
Delta 7925 Rocket 4.3 21:35:22 10° SW 21:39:11 25° S 21:40:59 20° SE
Cosmos 1975 Rocket 3.6 21:38:53 18° SSE 21:41:34 37° E 21:45:33 10° NNE
Cosmos 1378 Rocket 3.5 21:37:22 10° S 21:41:42 88° E 21:46:01 10° N
Cosmos 1674 Rocket 4.5 21:37:40 10° SSW 21:41:59 51° W 21:46:21 10° N
Okean 1 Rocket 3.0 21:40:14 10° N 21:44:35 71° E 21:47:43 18° SSE
Cosmos 304 Rocket 3.8 21:40:12 10° SSW 21:45:00 82° WNW 21:49:51 10° NNE
Cosmos 468 Rocket 4.1 21:40:01 10° S 21:45:09 57° ESE 21:50:18 10° NNE
Cosmos 2360 4.2 21:40:34 10° NNW 21:46:18 89° ENE 21:50:41 18° SSE
Cosmos 2233 Rocket 3.9 21:44:46 10° S 21:50:51 70° E 21:56:59 10° N
Abrixas rocket 2.1 21:48:17 10° SW 21:51:30 85° NW 21:54:44 10° NE
Resurs 01 Rocket 2.5 21:48:55 10° S 21:53:08 46° W 21:57:23 10° NNW
Cosmos 1763 Rocket 3.9 21:52:43 17° SSE 21:56:30 44° ESE 22:01:30 10° NNE
Cosmos 1570 Rocket 4.3 21:52:20 10° SSW 21:57:39 73° WNW 22:03:01 10° NNE
Cosmos 841 Rocket 4.3 21:57:54 27° SE 21:59:20 31° E 22:03:54 10° NE
OAO 1 Rocket 4.4 21:54:48 10° WSW 22:00:07 73° SSE 22:04:06 18° E
Cosmos 1697 Rocket 4.2 22:01:30 10° NW 22:06:27 32° WSW 22:11:23 10° SSW
Tiangong 2 2.0 22:05:22 10° W 22:08:25 47° NNW 22:10:50 15° NE
MetOp-B 4.3 22:06:43 29° SE 22:09:18 59° ENE 22:14:34 10° N
BREEZE-M DEB (TANK) 2.6 22:08:28 10° NW 22:10:52 70° NE 22:12:02 40° ESE
Helios 1A 4.1 22:13:26 26° E 22:13:49 26° ENE 22:17:18 10° NNE
H-2A R/B 2.0 22:12:55 35° SE 22:14:51 61° ENE 22:19:46 10° N
Cosmos 292 Rocket 4.2 22:14:51 37° ESE 22:15:18 38° ESE 22:19:42 10° NE
Cosmos 2360 Rocket 3.8 22:11:52 10° N 22:15:59 20° ENE 22:17:49 18° E
Timation 2 Rocket 4.0 22:12:32 10° SSW 22:18:29 76° WNW 22:24:32 10° NNE
Cosmos 1980 Rocket 3.0 22:13:29 10° NW 22:18:52 46° WSW 22:22:40 19° S
SJ 16-02 3.7 22:18:28 10° NE 22:19:43 11° ENE 22:20:02 11° ENE
BREEZE M DEB (TANK) 3.7 22:13:21 10° NW 22:22:14 43° NNE 22:23:58 27° ENE
DMSP B5D2-2 4.3 22:18:08 10° NNE 22:23:17 51° E 22:24:43 40° SE
Cosmos 1666 3.1 22:21:40 10° NNW 22:25:29 60° W 22:26:43 38° SSW
Meteor 2-9 Rocket 4.2 22:20:15 10° N 22:25:30 57° E 22:27:03 42° SE
Cosmos 2084 3.5 22:23:06 10° SW 22:27:29 77° WNW 22:31:39 10° NNE
NOSS 3-2 (C) 3.9 22:21:56 10° SW 22:27:41 60° NW 22:34:02 10° NNE
Cosmos 1898 Rocket 3.4 22:22:35 10° NNW 22:27:54 82° ENE 22:29:43 43° SSE
ERS-1 Rocket 2.9 22:27:56 45° SE 22:29:25 70° ENE 22:34:25 10° N
Cosmos 1743 3.1 22:25:57 10° NNW 22:29:42 57° W 22:30:42 42° SSW
Cosmos 1814 Rocket 3.9 22:27:49 21° SSW 22:31:23 89° ESE 22:36:42 10° NNE
Cosmos 2034 Rocket 4.4 22:30:48 38° ESE 22:32:07 43° E 22:37:53 10° NNE
Cosmos 1242 Rocket 2.8 22:30:05 10° NNW 22:33:42 61° W 22:34:08 55° SW
Centaur D-1AR AC-36 3.9 22:05:58 10° WSW 22:35:12 36° SSW 22:37:33 31° SSE
Meteor 2-4 Rocket 3.5 22:34:00 32° S 22:36:38 90° SE 22:42:11 10° N
Cosmos 1464 Rocket 4.0 22:34:58 36° SSE 22:37:40 70° E 22:44:01 10° NNE
Iridium 2 4.5 22:37:45 35° SW 22:38:56 48° W 22:42:38 10° N
Cosmos 1833 4.2 22:39:25 45° SSE 22:41:00 61° ESE 22:46:38 10° NNE
SPOT 5 2.8 22:42:31 54° E 22:42:38 54° ENE 22:46:59 10° N
Landsat 7 4.3 22:43:59 43° E 22:44:11 43° ENE 22:48:40 10° N
Cosmos 1340 Rocket 2.7 22:45:03 87° SW 22:45:06 88° W 22:49:11 10° N
USA 245 3.5 22:47:23 56° NNW 22:47:23 56° NNW 22:50:28 10° NNW
BREEZE-M DEB (TANK) 4.5 22:49:55 10° W 22:49:57 10° W 22:49:57 10° W
Shenzhou-11 Module 4.4 22:50:04 10° NW 22:52:17 20° N 22:52:17 20° N
Cosmos 990 Rocket 3.9 22:48:26 10° NNW 22:53:39 80° WSW 22:54:33 61° S
Cosmos 1891 Rocket 4.4 22:54:22 44° S 22:56:29 87° E 23:02:49 10° N
Cosmos 2150 Rocket 3.9 22:51:24 10° NNW 22:56:48 74° ENE 22:57:21 67° ESE
CENTAUR R/B 2.4 22:52:38 12° SW 22:58:05 81° WNW 23:04:46 10° NNE
Helios 1B rocket 2.7 22:54:35 10° NNE 22:58:04 61° NNE 22:58:04 61° NNE
IGS 5A 4.4 23:00:23 38° NE 23:00:23 38° NE 23:03:32 10° N
ATLAS CENTAUR R/B 3.8 22:59:08 10° WNW 23:02:04 17° WSW 23:03:21 15° SW
Terra 2.5 23:03:13 43° ENE 23:03:13 43° ENE 23:07:22 10° N
Cosmos 1515 4.4 23:05:30 51° NNW 23:05:30 51° NNW 23:08:32 10° N
CZ-4C R/B 4.4 23:01:54 10° N 23:07:42 25° NE 23:11:22 18° E
Cosmos 2322 Rocket 2.4 23:02:58 10° NNW 23:08:30 60° WSW 23:09:24 53° SSW
Cosmos 1025 Rocket 4.3 23:12:52 33° NE 23:12:52 33° NE 23:15:30 10° NNE
Meteor 1-15 Rocket 4.1 23:05:48 10° N 23:11:33 73° E 23:11:52 70° ESE
Cosmos 1455 Rocket 3.7 23:08:56 10° NNW 23:13:08 48° W 23:13:08 48° W
CZ-2C R/B 3.7 23:15:51 45° ENE 23:15:51 45° ENE 23:20:52 10° N
SL-16 R/B 2.7 23:10:16 10° NNW 23:15:41 48° WSW 23:16:36 44° SW
Cosmos 2298 Rocket 4.2 23:11:08 10° NNW 23:16:23 63° WSW 23:16:43 61° SW
Cosmos 2219 4.4 23:30:42 31° ENE 23:30:42 31° ENE 23:34:04 10° NE
Cosmos 2237 4.4 23:23:12 10° NNW 23:28:45 58° ENE 23:28:45 58° ENE
Cosmos 540 Rocket 4.1 23:38:12 46° W 23:38:49 49° WNW 23:43:50 10° N
Cosmos 1092 Rocket 3.9 23:43:35 10° N 23:49:52 82° ENE 23:49:52 82° ENE
H-2A R/B 4.4 23:53:32 11° WSW 23:54:40 12° W 23:56:27 10° WNW
